This is the latest recevied weather packets stored in our database for station/object K6GMW. If no packets are shown the sender has not sent any weather packets the latest 10 day(s).
| Time | Temp. | Humidity | Pressure | Rain* | Wind** | Luminosity | Snow |
|---|---|---|---|---|---|---|---|
| 1788032824 | 38.33° C | 31% | 1017.1 hPa | 0 mm | - | 904 W/m² | - |
| 1788032523 | 38.89° C | 33% | 1017.1 hPa | 0 mm | - | 908 W/m² | - |
| 1788032219 | 38.89° C | 31% | 1017.3 hPa | 0 mm | - | 920 W/m² | - |
| 1788031915 | 37.78° C | 33% | 1017.4 hPa | 0 mm | - | 913 W/m² | - |
| 1788031615 | 37.22° C | 33% | 1017.5 hPa | 0 mm | - | 926 W/m² | - |
| 1788031315 | 36.67° C | 32% | 1017.5 hPa | 0 mm | - | 934 W/m² | - |
| 1788031014 | 38.33° C | 31% | 1017.5 hPa | 0 mm | - | 324 W/m² | - |
| 1788030709 | 38.33° C | 32% | 1017.6 hPa | 0 mm | - | 954 W/m² | - |
| 1788030403 | 37.22° C | 33% | 1017.8 hPa | 0 mm | - | 969 W/m² | - |
| 1788030099 | 37.22° C | 33% | 1017.7 hPa | 0 mm | - | 969 W/m² | - |
| 1788029798 | 37.22° C | 35% | 1017.7 hPa | 0 mm | - | 948 W/m² | - |
| 1788029493 | 37.22° C | 35% | 1017.8 hPa | 0 mm | - | 929 W/m² | - |
| 1788029206 | 37.22° C | 35% | 1017.9 hPa | 0 mm | - | 963 W/m² | - |
| 1788028892 | 36.67° C | 36% | 1017.9 hPa | 0 mm | - | 985 W/m² | - |
| 1788028587 | 36.67° C | 36% | 1018.2 hPa | 0 mm | - | 305 W/m² | - |
| 1788028282 | 37.22° C | 36% | 1018.1 hPa | 0 mm | - | 1043 W/m² | - |
| 1788027978 | 37.22° C | 36% | 1018.1 hPa | 0 mm | - | 1037 W/m² | - |
| 1788027673 | 36.67° C | 36% | 1018.3 hPa | 0 mm | - | 1024 W/m² | - |
| 1788027373 | 36.67° C | 37% | 1018.2 hPa | 0 mm | - | 1002 W/m² | - |
| 1788027073 | 37.22° C | 36% | 1018.5 hPa | 0 mm | - | 1023 W/m² | - |
| 1788026767 | 36.11° C | 37% | 1018.5 hPa | 0 mm | - | 1019 W/m² | - |
| 1788026463 | 36.67° C | 38% | 1018.5 hPa | 0 mm | - | 1030 W/m² | - |
| 1788026163 | 36.11° C | 37% | 1018.9 hPa | 0 mm | - | 1027 W/m² | - |
| 1788025862 | 36.11° C | 37% | 1018.9 hPa | 0 mm | - | 1023 W/m² | - |
| 1788025556 | 36.11° C | 37% | 1018.9 hPa | 0 mm | - | 984 W/m² | - |
* Rain latest hour (hover to see other rain measurements)
** Current wind speed in m/s (hover to see current wind gust speed)